Regional Weather Roundup
Issued by NWS

Home | Current Version | Previous Version | Text Only | Print | Product List | Glossary Off
Versions: 1 2 3 4 5 6 7 8 9 10 11 12 13 14 15 16 17 18 19 20 21 22 23 24 25 26 27 28 29 30 31 32 33 34 35 36 37 38 39 40 41 42 43 44 45 46 47 48 49 50

000
ASUS43 KMPX 201710
RWRMN
WEATHER ROUNDUP FOR MINNESOTA
NATIONAL WEATHER SERVICE TWIN CITIES/CHANHASSEN MN
1200 PM CDT WED AUG 20 2014


NOTE: "FAIR" INDICATES FEW OR NO CLOUDS BELOW 12,000 FEET WITH NO
SIGNIFICANT WEATHER AND/OR OBSTRUCTIONS TO VISIBILITY. N/A MEANS
CURRENT SKY AND/OR WEATHER CONDITIONS ARE NOT AVAILABLE.

MNZ060>063-068>070-201800-
   Twin Cities Metro

CITY           SKY/WX    TMP DP  RH WIND       PRES   REMARKS
TWIN CITIES    PTSUNNY   79  65  62 E8        29.84F
ST PAUL        MOSUNNY   76  66  71 E7        29.86S
CRYSTAL        MOSUNNY   78  64  61 VRB7      29.84S
LAKEVILLE      PTSUNNY   75  66  73 E9        29.84F
EDEN PRAIRIE   MOSUNNY   79  65  62 E9        29.83F
SOUTH ST PAUL  MOSUNNY   76  65  68 SE6       29.86S
LAKE ELMO      FAIR      73  64  73 E5        29.89R
$$
MNZ001>005-007-008-013>017-022>024-027-028-201800-
   Northwest Minnesota

CITY           SKY/WX    TMP DP  RH WIND       PRES   REMARKS
BEMIDJI        PTSUNNY   72  64  75 SE10      29.86F
HALLOCK        SUNNY     81  66  61 S13       29.77S
ROSEAU         SUNNY     79  64  61 SE7       29.82F
WARROAD        MOSUNNY   75  66  73 E9        29.84F
THIEF RVR FALL SUNNY     79  64  61 SE8       29.82S
CROOKSTON      SUNNY     81  66  61 SE13      29.79F
FOSSTON        SUNNY     77  64  65 E7        29.83F
DETROIT LAKES  MOSUNNY   77  64  65 SE10      29.84F
MOORHEAD       PTSUNNY   81  70  69 SE9       29.80S
PARK RAPIDS    PTSUNNY   74  63  68 SE8       29.84F
MAHNOMEN       FAIR      75  66  73 SE7       29.82F
$$
MNZ006-009>011-018-025>026-201800-
   North Central Minnesota

CITY           SKY/WX    TMP DP  RH WIND       PRES   REMARKS
BAUDETTE       PTSUNNY   74  61  63 SE9       29.86S
FLAG ISLAND    PTSUNNY   72  63  73 SE6       29.85S
INTL FALLS     PTSUNNY   72  58  61 E7        29.87S
WASKISH        PTSUNNY   75  63  64 CALM      29.86S
BIG FORK       SUNNY     55  45  67 E3        29.89S
LONGVILLE      SUNNY     73  63  68 SE6       29.86F
GRAND RAPIDS   PTSUNNY   70  57  64 SE7       29.90S
CRANE LAKE     CLOUDY    66  61  82 CALM      29.91S
ORR            PTSUNNY   70  55  60 E5        29.87S
COOK           PTSUNNY   70  57  64 CALM      29.90R
WALKER         FAIR      72  63  72 SE7       29.85F
$$
MNZ012-019>021-037-201800-
   Northeast Minnesota

CITY           SKY/WX    TMP DP  RH WIND       PRES   REMARKS
DULUTH         CLOUDY    67  59  75 S7        29.91R
ELY            CLOUDY    66  59  77 NE5       29.90S
HIBBING        CLOUDY    71  57  61 VRB3      29.90R
EVELETH        CLOUDY    70  59  68 W3        29.91R
DULUTH HARBOR  CLOUDY    70  63  78 S5        29.90S
TWO HARBORS    CLOUDY    68  61  77 SE8       29.89R
SILVER BAY     SUNNY     66  63  88 E5        29.88
GRAND MARAIS     N/A     64  60  87 CALM      29.88S
G MARAIS ARPRT CLOUDY    63  55  77 N5        29.93S
$$
MNZ029>031-032-039>041-046>048-054>057-064-201800-
   West Central Minnesota

CITY           SKY/WX    TMP DP  RH WIND       PRES   REMARKS
FERGUS FALLS   PTSUNNY   79  63  57 SE7       29.80S
WHEATON        MOSUNNY   75  68  78 SE13G18   29.81S
MORRIS         MOSUNNY   82  66  57 SE9       29.81S
ALEXANDRIA     MOSUNNY   77  66  68 E9        29.85S
ELBOW LAKE     FAIR      78  66  66 SE10      29.82R
WADENA         MOSUNNY   73  66  78 SE9       29.84S
GLENWOOD       MOSUNNY   79  66  65 E8        29.85R
APPLETON       SUNNY     81  66  61 S8        29.82S
BENSON         SUNNY     81  68  65 S12       29.83R
ORTONVILLE     SUNNY     77  66  69 S8        29.81S
MADISON        SUNNY     81  70  69 SE7       29.82S
WILLMAR        FAIR      81  66  61 SE10      29.86R
$$
MNZ033>034-036-042>043-049>051-058-059-201800-
   Central Minnesota

CITY           SKY/WX    TMP DP  RH WIND       PRES   REMARKS
ST CLOUD       SUNNY     78  65  63 SE9       29.84F
SAUK CENTRE    FAIR      75  66  71 E7        29.84S
PAYNESVILLE    MOSUNNY   74  65  71 E10       29.84S HAZE
AITKIN         SUNNY     75  64  69 E5        29.86F
PINE RIVER     PTSUNNY   72  64  78 E8        29.89F
BRAINERD       PTSUNNY   71  62  73 VRB5      29.87F
STAPLES        SUNNY     73  63  68 S7        29.85S
LONG PRAIRIE   FAIR      72  64  78 E7        29.85F
LITTLE FALLS   SUNNY     73  63  68 E6        29.86S
LITCHFIELD     MOSUNNY   79  70  73 E10       29.85S
BUFFALO        MOSUNNY   77  64  62 E7        29.85F
MAPLE LAKE     MOSUNNY   78  67  69 E8        29.86S
$$
MNZ037-044-045-052-053-201800-
   East Central Minnesota

CITY           SKY/WX    TMP DP  RH WIND       PRES   REMARKS
PRINCETON      SUNNY     77  64  65 NE8       29.86F
MORA           PTSUNNY   70  61  73 E7        29.90R
CAMBRIDGE      SUNNY     75  61  60 E6        29.85F
RUSH CITY      MOSUNNY   71  63  74 E6        29.89R
MOOSE LAKE     PTSUNNY   70  59  68 CALM      29.87F
HINCKLEY       CLOUDY    70  63  78 E8        29.88F
CLOQUET        CLOUDY    66  61  82 S3        29.91S
MCGREGOR       MOSUNNY   70  61  73 CALM      29.89F
$$
MNZ071>073-080-081-089-090-097-098-201800-
   Southwest Minnesota

CITY           SKY/WX    TMP DP  RH WIND       PRES   REMARKS
MONTEVIDEO     SUNNY     82  70  65 S9        29.84S
GRANITE FALLS  MOSUNNY   79  69  71 SE13      29.85S
CANBY          SUNNY     77  65  66 SE10      29.83F
MARSHALL       SUNNY     81  63  54 SE14G23   29.82F
REDWOOD FALLS  PTSUNNY   80  66  62 SE13      29.84R
OLIVIA         MOSUNNY   79  66  65 SE10      29.84S
PIPESTONE      MOSUNNY   75  66  73 SE10      29.83S
WINDOM         CLOUDY    79  66  65 SE14      29.85S
WORTHINGTON    PTSUNNY   73  14  10 SE8       29.86R
JACKSON        CLOUDY    77  64  65 SE10      29.86R
TRACY          MOSUNNY   80  66  62 SE14      29.84F
SLAYTON        MOSUNNY   75  66  75 CALM      29.85S
$$
MNZ065>067-074>077-082>085-091>093-201800-
   South Central Minnesota

CITY           SKY/WX    TMP DP  RH WIND       PRES   REMARKS
MANKATO        CLOUDY    77  64  65 S9        29.85R
NEW ULM        CLOUDY    77  70  78 SE8       29.86R
ST JAMES       CLOUDY    81  66  61 S9        29.86R
FAIRMONT       CLOUDY    75  64  69 SE12      29.85R
GLENCOE        PTSUNNY   80  65  61 SE9       29.85R
FARIBAULT      PTSUNNY   81  63  54 E7        29.85F
OWATONNA       CLOUDY    79  64  61 E8        29.85F
WASECA         CLOUDY    77  61  57 SE8       29.87R
ALBERT LEA     CLOUDY    79  68  69 SE7       29.85F
$$
MNZ078>079-086>088-094>096-201800-
   Southeast Minnesota

CITY           SKY/WX    TMP DP  RH WIND       PRES   REMARKS
ROCHESTER      PTSUNNY   77  66  68 SE5       29.88F
RED WING       MOSUNNY   75  64  69 SE9       29.86F
STANTON        PTSUNNY   78  66  66 E10       29.83F
DODGE CENTER   PTSUNNY   77  68  73 SE6       29.87F
WINONA         SUNNY     73  66  78 E3        29.88F
AUSTIN         PTSUNNY   77  68  73 SE7       29.86F
PRESTON        MOSUNNY   78  69  72 S6        29.89F
$$
ABBREVIATIONS USED IN REMARKS
   TC - TEMPERATURES IN CELSIUS
  WCI - WIND CHILL INDEX
   HX - HEAT INDEX
  VSB - VISIBILITY
$$


USA.gov is the U.S. government's official web portal to all federal, state and local government web resources and services.